FHVBU LFBH-LFCH

Flight info

Callsign FHVBU
Flight time 1h 9m
Altitude 9000
Route MAREN A25 BMC
Aircraft DA42/L-SBDGRY/S

Departure

Time 2026-04-25 11:56
Airport La Rochelle Île de Ré Airport (LFBH)

Arrival

Time 2026-04-25 13:05
Airport Aérodrome d'Arcachon-La Teste-de-Buch (LFCH)
Time Latitude Longitude Altitude Speed Heading
2026-04-25 11:32 46.17652 -1.19571 71 ft 0 kts 234°
2026-04-25 11:35 46.17647 -1.19591 71 ft 5 kts 282°
2026-04-25 11:35 46.17684 -1.19629 69 ft 3 kts 330°
2026-04-25 11:35 46.17676 -1.19654 66 ft 5 kts 168°
2026-04-25 11:36 46.17662 -1.19643 69 ft 0 kts 149°
2026-04-25 11:39 46.17653 -1.19614 64 ft 6 kts 114°
2026-04-25 11:39 46.17648 -1.19560 71 ft 7 kts 54°
2026-04-25 11:39 46.17656 -1.19543 68 ft 0 kts 55°
2026-04-25 11:51 46.17663 -1.19529 68 ft 7 kts 54°
2026-04-25 11:52 46.17736 -1.19500 71 ft 14 kts
2026-04-25 11:52 46.17848 -1.19494 71 ft 18 kts
2026-04-25 11:52 46.17915 -1.19419 67 ft 15 kts 93°
2026-04-25 11:52 46.17905 -1.19256 67 ft 18 kts 107°
2026-04-25 11:53 46.17910 -1.19226 67 ft 0 kts 275°
2026-04-25 11:54 46.17911 -1.19247 63 ft 11 kts 272°
2026-04-25 11:55 46.17923 -1.19616 71 ft 64 kts 273°
2026-04-25 11:55 46.17939 -1.20417 127 ft 89 kts 270°
2026-04-25 11:55 46.17973 -1.21411 212 ft 109 kts 271°
2026-04-25 11:55 46.18021 -1.22533 432 ft 111 kts 270°
2026-04-25 11:56 46.18073 -1.23644 677 ft 112 kts 268°
2026-04-25 11:56 46.18115 -1.24778 854 ft 115 kts 268°
2026-04-25 11:56 46.18153 -1.25918 1107 ft 114 kts 268°
2026-04-25 11:56 46.18190 -1.27081 1294 ft 117 kts 269°
2026-04-25 11:57 46.18228 -1.28239 1504 ft 118 kts 269°
2026-04-25 11:57 46.18201 -1.29423 1716 ft 117 kts 248°
2026-04-25 11:57 46.17729 -1.30318 1940 ft 112 kts 210°
2026-04-25 11:57 46.16995 -1.30578 2102 ft 110 kts 173°
2026-04-25 11:58 46.16275 -1.30230 2303 ft 109 kts 156°
2026-04-25 11:58 46.15568 -1.29821 2562 ft 108 kts 156°
2026-04-25 11:58 46.14859 -1.29414 2768 ft 112 kts 157°
2026-04-25 11:58 46.14125 -1.29002 2998 ft 113 kts 156°
2026-04-25 11:59 46.13390 -1.28595 3206 ft 114 kts 156°
2026-04-25 11:59 46.12645 -1.28175 3392 ft 116 kts 157°
2026-04-25 11:59 46.11892 -1.27751 3585 ft 116 kts 156°
2026-04-25 12:00 46.10382 -1.26901 3979 ft 116 kts 156°
2026-04-25 12:00 46.09626 -1.26476 4176 ft 117 kts 156°
2026-04-25 12:00 46.08100 -1.25612 4555 ft 119 kts 157°
2026-04-25 12:01 46.07341 -1.25184 4762 ft 119 kts 157°
2026-04-25 12:01 46.06569 -1.24747 4954 ft 120 kts 158°
2026-04-25 12:01 46.05791 -1.24308 5139 ft 120 kts 158°
2026-04-25 12:01 46.05011 -1.23869 5327 ft 121 kts 158°
2026-04-25 12:02 46.03442 -1.22985 5704 ft 121 kts 158°
2026-04-25 12:02 46.02653 -1.22540 5898 ft 122 kts 158°
2026-04-25 12:02 46.01862 -1.22095 6088 ft 122 kts 158°
2026-04-25 12:03 46.01068 -1.21648 6281 ft 123 kts 159°
2026-04-25 12:03 46.00272 -1.21200 6474 ft 123 kts 159°
2026-04-25 12:03 45.99471 -1.20749 6660 ft 124 kts 159°
2026-04-25 12:03 45.98669 -1.20298 6842 ft 124 kts 159°
2026-04-25 12:04 45.97877 -1.19853 7022 ft 124 kts 159°
2026-04-25 12:04 45.97064 -1.19396 7209 ft 124 kts 159°
2026-04-25 12:04 45.96259 -1.18945 7398 ft 124 kts 158°
2026-04-25 12:04 45.95463 -1.18500 7603 ft 122 kts 158°
2026-04-25 12:05 45.94679 -1.18061 7813 ft 120 kts 159°
2026-04-25 12:05 45.93900 -1.17623 7999 ft 120 kts 159°
2026-04-25 12:05 45.93132 -1.17191 8189 ft 120 kts 160°
2026-04-25 12:05 45.92356 -1.16755 8374 ft 120 kts 160°
2026-04-25 12:06 45.91575 -1.16318 8551 ft 121 kts 160°
2026-04-25 12:06 45.90784 -1.15875 8722 ft 123 kts 160°
2026-04-25 12:06 45.89995 -1.15433 8930 ft 121 kts 159°
2026-04-25 12:06 45.89180 -1.14978 8983 ft 132 kts 159°
2026-04-25 12:07 45.88289 -1.14477 8987 ft 142 kts 159°
2026-04-25 12:07 45.87358 -1.13951 8988 ft 145 kts 159°
2026-04-25 12:07 45.86416 -1.13420 8989 ft 145 kts 160°
2026-04-25 12:07 45.85474 -1.12890 8990 ft 145 kts 160°
2026-04-25 12:08 45.84528 -1.12361 8991 ft 145 kts 160°
2026-04-25 12:08 45.83590 -1.11837 8996 ft 144 kts 160°
2026-04-25 12:08 45.82649 -1.11312 8996 ft 146 kts 159°
2026-04-25 12:08 45.81691 -1.10779 8995 ft 149 kts 159°
2026-04-25 12:09 45.80739 -1.10249 8986 ft 149 kts 159°
2026-04-25 12:09 45.79826 -1.09740 8990 ft 149 kts 159°
2026-04-25 12:09 45.78857 -1.09200 9038 ft 147 kts 159°
2026-04-25 12:09 45.77931 -1.08684 9143 ft 140 kts 159°
2026-04-25 12:10 45.77013 -1.08174 9144 ft 143 kts 159°
2026-04-25 12:10 45.76080 -1.07656 9148 ft 144 kts 160°
2026-04-25 12:10 45.75143 -1.07133 9151 ft 145 kts 160°
2026-04-25 12:10 45.74201 -1.06608 9151 ft 146 kts 159°
2026-04-25 12:11 45.73248 -1.06093 9150 ft 146 kts 164°
2026-04-25 12:11 45.72259 -1.05740 9151 ft 147 kts 167°
2026-04-25 12:11 45.71265 -1.05390 9151 ft 147 kts 166°
2026-04-25 12:11 45.70272 -1.05024 9154 ft 148 kts 166°
2026-04-25 12:12 45.69274 -1.04649 9153 ft 148 kts 166°
2026-04-25 12:12 45.68613 -1.04400 9152 ft 148 kts 166°
2026-04-25 12:12 45.67279 -1.03899 9154 ft 148 kts 166°
2026-04-25 12:12 45.66290 -1.03525 9152 ft 147 kts 166°
2026-04-25 12:13 45.65307 -1.03156 9153 ft 146 kts 166°
2026-04-25 12:13 45.64329 -1.02791 9152 ft 145 kts 166°
2026-04-25 12:13 45.63351 -1.02425 9152 ft 145 kts 166°
2026-04-25 12:13 45.62379 -1.02062 9152 ft 144 kts 166°
2026-04-25 12:14 45.61417 -1.01702 9150 ft 145 kts 166°
2026-04-25 12:14 45.60439 -1.01337 9154 ft 144 kts 166°
2026-04-25 12:14 45.59467 -1.00972 9155 ft 144 kts 166°
2026-04-25 12:14 45.58495 -1.00609 9154 ft 144 kts 166°
2026-04-25 12:15 45.57527 -1.00248 9153 ft 144 kts 166°
2026-04-25 12:15 45.56554 -0.99883 9160 ft 145 kts 166°
2026-04-25 12:15 45.55589 -0.99523 9159 ft 145 kts 166°
2026-04-25 12:15 45.54610 -0.99159 9159 ft 145 kts 166°
2026-04-25 12:16 45.53629 -0.98794 9158 ft 145 kts 167°
2026-04-25 12:16 45.52652 -0.98427 9158 ft 146 kts 166°
2026-04-25 12:16 45.51667 -0.98062 9158 ft 146 kts 166°
2026-04-25 12:16 45.50681 -0.97695 9157 ft 147 kts 166°
2026-04-25 12:17 45.49693 -0.97327 9158 ft 147 kts 166°
2026-04-25 12:17 45.48703 -0.96959 9158 ft 147 kts 166°
2026-04-25 12:17 45.47713 -0.96590 9158 ft 147 kts 166°
2026-04-25 12:17 45.46723 -0.96221 9159 ft 147 kts 166°
2026-04-25 12:18 45.45738 -0.95853 9161 ft 146 kts 167°
2026-04-25 12:18 45.44760 -0.95489 9162 ft 145 kts 167°
2026-04-25 12:18 45.43782 -0.95127 9162 ft 145 kts 167°
2026-04-25 12:18 45.42807 -0.94765 9161 ft 145 kts 167°
2026-04-25 12:19 45.41186 -0.94164 9163 ft 145 kts 167°
2026-04-25 12:19 45.39880 -0.93680 9163 ft 145 kts 167°
2026-04-25 12:19 45.38903 -0.93317 9164 ft 145 kts 167°
2026-04-25 12:20 45.37925 -0.92954 9161 ft 145 kts 168°
2026-04-25 12:20 45.36964 -0.92594 9161 ft 145 kts 168°
2026-04-25 12:20 45.35988 -0.92232 9160 ft 145 kts 167°
2026-04-25 12:20 45.35010 -0.91872 9160 ft 145 kts 167°
2026-04-25 12:21 45.34030 -0.91511 9162 ft 146 kts 167°
2026-04-25 12:21 45.33044 -0.91147 9162 ft 147 kts 167°
2026-04-25 12:21 45.32053 -0.90780 9162 ft 147 kts 167°
2026-04-25 12:21 45.31064 -0.90413 9163 ft 147 kts 168°
2026-04-25 12:22 45.30079 -0.90047 9162 ft 146 kts 168°
2026-04-25 12:22 45.29093 -0.89683 9164 ft 146 kts 168°
2026-04-25 12:22 45.28119 -0.89323 9162 ft 146 kts 168°
2026-04-25 12:22 45.27135 -0.88960 9162 ft 146 kts 168°
2026-04-25 12:23 45.26156 -0.88598 9161 ft 145 kts 168°
2026-04-25 12:23 45.25179 -0.88237 9161 ft 144 kts 168°
2026-04-25 12:23 45.24208 -0.87879 9162 ft 144 kts 168°
2026-04-25 12:23 45.23234 -0.87520 9163 ft 145 kts 168°
2026-04-25 12:24 45.22256 -0.87160 9165 ft 145 kts 168°
2026-04-25 12:24 45.21276 -0.86799 9165 ft 146 kts 168°
2026-04-25 12:24 45.20294 -0.86437 9165 ft 146 kts 168°
2026-04-25 12:24 45.19310 -0.86074 9167 ft 146 kts 168°
2026-04-25 12:25 45.18325 -0.85696 9159 ft 147 kts 169°
2026-04-25 12:25 45.17337 -0.85312 9159 ft 147 kts 169°
2026-04-25 12:25 45.16359 -0.84936 9160 ft 148 kts 169°
2026-04-25 12:25 45.15361 -0.84554 9159 ft 148 kts 169°
2026-04-25 12:26 45.14366 -0.84175 9162 ft 148 kts 168°
2026-04-25 12:26 45.13366 -0.83793 9162 ft 149 kts 168°
2026-04-25 12:26 45.12365 -0.83409 9162 ft 149 kts 168°
2026-04-25 12:26 45.11364 -0.83026 9162 ft 149 kts 168°
2026-04-25 12:27 45.10362 -0.82642 9162 ft 149 kts 169°
2026-04-25 12:27 45.09362 -0.82258 9162 ft 149 kts 168°
2026-04-25 12:27 45.08377 -0.81883 9162 ft 148 kts 168°
2026-04-25 12:27 45.07381 -0.81503 9161 ft 148 kts 168°
2026-04-25 12:28 45.06387 -0.81124 9162 ft 147 kts 168°
2026-04-25 12:28 45.05399 -0.80746 9163 ft 147 kts 168°
2026-04-25 12:28 45.04414 -0.80369 9163 ft 146 kts 169°
2026-04-25 12:28 45.03432 -0.79993 9164 ft 146 kts 169°
2026-04-25 12:29 45.02448 -0.79617 9163 ft 146 kts 169°
2026-04-25 12:29 45.01463 -0.79242 9162 ft 146 kts 169°
2026-04-25 12:29 45.00483 -0.78869 9162 ft 146 kts 169°
2026-04-25 12:29 44.99504 -0.78496 9175 ft 146 kts 169°
2026-04-25 12:30 44.98523 -0.78121 9174 ft 146 kts 169°
2026-04-25 12:30 44.97539 -0.77745 9174 ft 147 kts 169°
2026-04-25 12:30 44.96552 -0.77368 9174 ft 147 kts 169°
2026-04-25 12:30 44.95576 -0.76997 9176 ft 148 kts 169°
2026-04-25 12:31 44.94579 -0.76619 9175 ft 148 kts 169°
2026-04-25 12:31 44.93587 -0.76243 9178 ft 147 kts 168°
2026-04-25 12:31 44.92593 -0.75869 9176 ft 148 kts 169°
2026-04-25 12:31 44.91593 -0.75488 9178 ft 149 kts 168°
2026-04-25 12:32 44.90587 -0.75106 9180 ft 150 kts 168°
2026-04-25 12:32 44.89581 -0.74723 9181 ft 150 kts 169°
2026-04-25 12:32 44.88915 -0.74469 9181 ft 150 kts 169°
2026-04-25 12:32 44.87911 -0.74088 9180 ft 149 kts 169°
2026-04-25 12:33 44.86906 -0.73708 9177 ft 149 kts 168°
2026-04-25 12:33 44.85901 -0.73329 9178 ft 150 kts 168°
2026-04-25 12:33 44.84891 -0.72946 9178 ft 150 kts 168°
2026-04-25 12:33 44.83881 -0.72587 9177 ft 149 kts 174°
2026-04-25 12:34 44.82870 -0.72676 9179 ft 145 kts 198°
2026-04-25 12:34 44.81985 -0.73332 9181 ft 144 kts 220°
2026-04-25 12:34 44.81322 -0.74376 9181 ft 143 kts 231°
2026-04-25 12:34 44.80912 -0.75102 9182 ft 143 kts 231°
2026-04-25 12:35 44.80070 -0.76563 9067 ft 149 kts 231°
2026-04-25 12:35 44.79392 -0.77716 8895 ft 155 kts 230°
2026-04-25 12:35 44.78698 -0.78888 8742 ft 156 kts 230°
2026-04-25 12:35 44.77998 -0.80071 8489 ft 158 kts 230°
2026-04-25 12:36 44.77296 -0.81256 8244 ft 157 kts 230°
2026-04-25 12:36 44.76600 -0.82434 7995 ft 157 kts 230°
2026-04-25 12:36 44.75902 -0.83613 7749 ft 156 kts 230°
2026-04-25 12:36 44.75204 -0.84794 7441 ft 158 kts 230°
2026-04-25 12:37 44.74493 -0.85994 7126 ft 160 kts 230°
2026-04-25 12:37 44.73777 -0.87202 6815 ft 161 kts 230°
2026-04-25 12:37 44.73063 -0.88407 6495 ft 159 kts 229°
2026-04-25 12:37 44.72374 -0.89574 6162 ft 149 kts 229°
2026-04-25 12:38 44.71711 -0.90692 5837 ft 148 kts 229°
2026-04-25 12:38 44.71051 -0.91803 5513 ft 148 kts 229°
2026-04-25 12:38 44.70391 -0.92912 5189 ft 148 kts 229°
2026-04-25 12:38 44.69740 -0.94012 4867 ft 146 kts 229°
2026-04-25 12:39 44.69097 -0.95095 4493 ft 140 kts 229°
2026-04-25 12:39 44.68499 -0.96103 4118 ft 133 kts 229°
2026-04-25 12:39 44.67917 -0.97077 3746 ft 131 kts 228°
2026-04-25 12:39 44.67347 -0.98034 3376 ft 126 kts 230°
2026-04-25 12:40 44.66790 -0.98976 2989 ft 123 kts 229°
2026-04-25 12:40 44.66247 -0.99874 2622 ft 119 kts 231°
2026-04-25 12:40 44.65718 -1.00763 2230 ft 116 kts 231°
2026-04-25 12:40 44.65205 -1.01622 1860 ft 116 kts 231°
2026-04-25 12:41 44.64687 -1.02493 1480 ft 115 kts 231°
2026-04-25 12:41 44.64191 -1.03362 1158 ft 110 kts 238°
2026-04-25 12:41 44.64044 -1.04388 1137 ft 113 kts 269°
2026-04-25 12:41 44.63938 -1.05476 1131 ft 107 kts 241°
2026-04-25 12:42 44.63418 -1.06065 1172 ft 94 kts 208°
2026-04-25 12:42 44.63010 -1.06283 1180 ft 95 kts 202°
2026-04-25 12:42 44.62197 -1.06695 1157 ft 91 kts 204°
2026-04-25 12:42 44.61627 -1.06997 1221 ft 87 kts 210°
2026-04-25 12:43 44.61308 -1.07675 1197 ft 92 kts 260°
2026-04-25 12:43 44.61266 -1.08625 1115 ft 98 kts 263°
2026-04-25 12:43 44.61188 -1.10450 945 ft 92 kts 259°
2026-04-25 12:44 44.61140 -1.11328 959 ft 82 kts 264°
2026-04-25 12:44 44.61105 -1.12177 994 ft 91 kts 265°
2026-04-25 12:44 44.60287 -1.13142 1054 ft 100 kts 171°
2026-04-25 12:45 44.59618 -1.12868 1085 ft 101 kts 167°
2026-04-25 12:45 44.58931 -1.12588 1079 ft 105 kts 169°
2026-04-25 12:45 44.57573 -1.11798 1080 ft 114 kts 136°
2026-04-25 12:46 44.57482 -1.10665 1078 ft 124 kts 78°
2026-04-25 12:46 44.57705 -1.09534 1092 ft 118 kts 74°
2026-04-25 12:46 44.57931 -1.08432 1020 ft 114 kts 74°
2026-04-25 12:46 44.58148 -1.07382 980 ft 110 kts 74°
2026-04-25 12:47 44.58645 -1.06705 943 ft 103 kts
2026-04-25 12:47 44.59335 -1.06881 823 ft 101 kts 340°
2026-04-25 12:47 44.59927 -1.07286 743 ft 94 kts 309°
2026-04-25 12:47 44.60263 -1.08075 614 ft 95 kts 273°
2026-04-25 12:48 44.60151 -1.08985 379 ft 92 kts 253°
2026-04-25 12:48 44.59944 -1.09829 246 ft 86 kts 250°
2026-04-25 12:48 44.59776 -1.10572 97 ft 77 kts 252°
2026-04-25 12:48 44.59635 -1.11194 52 ft 52 kts 253°
2026-04-25 12:49 44.59499 -1.11807 113 ft 74 kts 252°
2026-04-25 12:49 44.59338 -1.12564 298 ft 85 kts 252°
2026-04-25 12:49 44.59171 -1.13359 558 ft 85 kts 255°
2026-04-25 12:49 44.59019 -1.14130 928 ft 78 kts 252°
2026-04-25 12:50 44.58853 -1.14972 1002 ft 103 kts 253°
2026-04-25 12:50 44.58640 -1.16049 1002 ft 122 kts 253°
2026-04-25 12:50 44.58472 -1.17211 989 ft 124 kts 270°
2026-04-25 12:50 44.58780 -1.18338 988 ft 131 kts 304°
2026-04-25 12:51 44.59415 -1.19264 987 ft 128 kts 310°
2026-04-25 12:51 44.60137 -1.19972 991 ft 128 kts 331°
2026-04-25 12:51 44.60960 -1.20460 997 ft 129 kts 333°
2026-04-25 12:51 44.61763 -1.20952 988 ft 126 kts 331°
2026-04-25 12:52 44.62551 -1.21430 980 ft 122 kts 331°
2026-04-25 12:52 44.63331 -1.21896 995 ft 123 kts 331°
2026-04-25 12:52 44.64156 -1.22372 1001 ft 135 kts 331°
2026-04-25 12:52 44.64784 -1.23307 1006 ft 135 kts 285°
2026-04-25 12:53 44.64894 -1.24626 1000 ft 138 kts 270°
2026-04-25 12:53 44.64691 -1.25905 997 ft 137 kts 235°
2026-04-25 12:53 44.63895 -1.26563 982 ft 135 kts 189°
2026-04-25 12:53 44.62978 -1.26499 1000 ft 130 kts 172°
2026-04-25 12:54 44.62248 -1.25774 993 ft 137 kts 129°
2026-04-25 12:54 44.61802 -1.24574 993 ft 136 kts 121°
2026-04-25 12:54 44.61394 -1.23398 1004 ft 132 kts 120°
2026-04-25 12:54 44.60978 -1.22246 988 ft 132 kts 120°
2026-04-25 12:55 44.60401 -1.21347 982 ft 124 kts 159°
2026-04-25 12:55 44.59848 -1.21211 992 ft 119 kts 190°
2026-04-25 12:55 44.58930 -1.21960 992 ft 116 kts 223°
2026-04-25 12:55 44.58315 -1.22680 998 ft 116 kts 222°
2026-04-25 12:56 44.57635 -1.23267 986 ft 117 kts 193°
2026-04-25 12:56 44.56858 -1.22985 992 ft 120 kts 145°
2026-04-25 12:56 44.56474 -1.22003 977 ft 114 kts 104°
2026-04-25 12:56 44.56139 -1.21149 979 ft 92 kts 152°
2026-04-25 12:57 44.55594 -1.20944 983 ft 76 kts 193°
2026-04-25 12:57 44.55147 -1.21409 1008 ft 94 kts 241°
2026-04-25 12:57 44.54865 -1.22270 1001 ft 98 kts 259°
2026-04-25 12:57 44.55051 -1.23149 1101 ft 95 kts 307°
2026-04-25 12:58 44.55680 -1.23516 1048 ft 111 kts
2026-04-25 12:58 44.56360 -1.22891 994 ft 124 kts 43°
2026-04-25 12:58 44.56978 -1.21999 938 ft 129 kts 39°
2026-04-25 12:58 44.57685 -1.21257 1020 ft 125 kts 29°
2026-04-25 12:59 44.58431 -1.20604 1004 ft 128 kts 29°
2026-04-25 12:59 44.59160 -1.19935 1071 ft 126 kts 31°
2026-04-25 12:59 44.59828 -1.19113 1082 ft 131 kts 47°
2026-04-25 12:59 44.60228 -1.17959 1037 ft 134 kts 79°
2026-04-25 13:00 44.60340 -1.16656 996 ft 136 kts 86°
2026-04-25 13:00 44.60371 -1.16206 958 ft 137 kts 87°
2026-04-25 13:00 44.60491 -1.14048 968 ft 131 kts 89°
2026-04-25 13:00 44.60165 -1.12983 1031 ft 117 kts 152°
2026-04-25 13:01 44.59400 -1.12686 976 ft 117 kts 178°
2026-04-25 13:01 44.58652 -1.12545 943 ft 102 kts 175°
2026-04-25 13:01 44.57982 -1.12321 959 ft 96 kts 175°
2026-04-25 13:01 44.57378 -1.12022 965 ft 99 kts 142°
2026-04-25 13:02 44.57262 -1.11039 994 ft 113 kts 77°
2026-04-25 13:02 44.57489 -1.09996 1064 ft 108 kts 75°
2026-04-25 13:02 44.57711 -1.08987 1019 ft 113 kts 72°
2026-04-25 13:02 44.57938 -1.07952 977 ft 106 kts 81°
2026-04-25 13:03 44.58096 -1.06911 962 ft 108 kts 86°
2026-04-25 13:03 44.58436 -1.06019 919 ft 102 kts 27°
2026-04-25 13:03 44.59098 -1.05996 924 ft 96 kts 340°
2026-04-25 13:03 44.59724 -1.06323 935 ft 100 kts 330°
2026-04-25 13:04 44.60251 -1.06950 784 ft 100 kts 300°
2026-04-25 13:04 44.60387 -1.07846 602 ft 100 kts 256°
2026-04-25 13:04 44.60176 -1.08739 435 ft 94 kts 255°
2026-04-25 13:04 44.59991 -1.09588 279 ft 89 kts 250°
2026-04-25 13:05 44.59820 -1.10349 138 ft 75 kts 252°
2026-04-25 13:05 44.59675 -1.11016 50 ft 59 kts 252°
2026-04-25 13:05 44.59588 -1.11412 55 ft 13 kts 260°
2026-04-25 13:05 44.59629 -1.11456 54 ft 10 kts 339°
2026-04-25 13:06 44.59647 -1.11435 54 ft 7 kts 94°
2026-04-25 13:06 44.59661 -1.11361 54 ft 6 kts 53°
2026-04-25 13:06 44.59701 -1.11356 54 ft 4 kts 124°
2026-04-25 13:06 44.59697 -1.11353 54 ft 0 kts 170°